Location: M.A.R.S.Observatory
(35.4031°N, 81.5481°W)
Time: 17:11:44
(UTC-04:00)

SL-8 R/B - Visible Passes

Search period start: 20 October 2014 00:00
Search period end: 30 October 2014 00:00
Orbit: 659 x 670 km, 48.4° (Epoch: 20 October)

Date Brightness Start Highest point End Pass type
(mag) Time Alt. Az. Time Alt. Az. Time Alt. Az.
20 Oct 4.8 05:53:23 25° NNW 05:55:37 39° NNE 06:00:09 10° E visible
21 Oct 6.0 04:46:04 20° NE 04:46:04 20° NE 04:48:21 10° ENE visible
21 Oct 3.7 06:24:07 20° NW 06:27:30 85° NE 06:32:20 10° SE visible
22 Oct 4.7 05:16:53 41° NE 05:16:53 41° NE 05:21:07 10° E visible
22 Oct 4.4 06:54:56 12° WNW 06:59:05 38° SW 07:03:32 10° SSE visible
23 Oct 3.6 05:47:48 69° WNW 05:48:23 88° SW 05:53:13 10° SE visible
24 Oct 6.2 04:40:45 18° E 04:40:45 18° E 04:42:04 10° ESE visible
24 Oct 4.4 06:18:49 30° WSW 06:19:56 34° SW 06:24:17 10° SSE visible
25 Oct 5.4 05:11:51 27° SE 05:11:51 27° SE 05:14:04 10° SE visible
25 Oct 5.6 06:49:55 12° WSW 06:51:14 13° SW 06:53:16 10° SSW visible
25 Oct 6.2 21:00:26 10° SSW 21:00:49 12° SSW 21:00:49 12° SSW visible
26 Oct 5.4 05:43:01 21° S 05:43:01 21° S 05:45:00 10° SSE visible
26 Oct 5.5 19:51:40 10° SSE 19:53:52 15° SE 19:53:52 15° SE visible
26 Oct 6.5 21:31:34 10° SW 21:31:56 12° SW 21:31:56 12° SW visible
27 Oct 4.4 20:21:11 10° SSW 20:24:54 37° SSE 20:24:54 37° SSE visible
28 Oct 5.4 19:12:09 10° SSE 19:15:07 17° SE 19:17:47 11° E visible
28 Oct 4.5 20:52:27 10° SW 20:55:51 47° WSW 20:55:51 47° WSW visible
29 Oct 4.1 19:41:57 10° SSW 19:46:28 44° SE 19:48:37 27° E visible
29 Oct 5.9 21:24:39 10° W 21:26:40 22° W 21:26:40 22° W visible
